Location: Dos Palmas
(32.4468°N, 116.8732°W)
Time: 12:34:22
(UTC+00:00)

Meteor 1-24 Rocket - Visible Passes

Search period start: 23 October 2021 00:00
Search period end: 02 November 2021 00:00
Orbit: 790 x 927 km, 81.2° (Epoch: 22 October)

Date Brightness Start Highest point End Pass type
(mag) Time Alt. Az. Time Alt. Az. Time Alt. Az.
23 Oct 5.2 12:44:02 10° SSE 12:48:52 38° E 12:53:48 10° NNE visible
24 Oct 5.2 12:34:28 10° SSE 12:39:16 36° E 12:44:10 10° NNE visible
25 Oct 5.3 12:24:55 10° SSE 12:29:40 35° E 12:34:31 10° NNE visible
26 Oct 5.3 12:15:21 10° SSE 12:20:04 33° E 12:24:53 10° NNE visible
27 Oct 5.4 12:05:48 10° SSE 12:10:28 32° E 12:15:14 10° NNE visible
28 Oct 5.4 11:56:16 10° SSE 12:00:52 31° E 12:05:35 10° NNE visible
29 Oct 5.5 11:46:42 10° SSE 11:51:16 30° E 11:55:56 10° NNE visible
29 Oct 4.6 13:29:55 10° SW 13:34:17 25° WNW 13:38:44 10° NNW visible
30 Oct 5.5 11:37:10 10° SSE 11:41:41 28° E 11:46:17 10° NNE visible
30 Oct 4.5 13:20:12 10° SW 13:24:39 26° WNW 13:29:13 10° NNW visible
31 Oct 5.5 11:27:37 10° SE 11:32:05 27° E 11:36:38 10° NNE visible
31 Oct 4.5 13:10:30 10° SW 13:15:00 27° WNW 13:19:41 10° NNW visible
01 Nov 5.6 11:18:06 10° SE 11:22:29 26° E 11:26:59 10° NE visible
01 Nov 4.4 13:00:48 10° SW 13:05:23 29° WNW 13:10:08 10° NNW visible
